| time (UTC) | temp F | wind direction | speed MPH | gust MPH | rain 1hr in | rain 24hr in | rain mn in | humidity % | barometer mb |
| 20260903102703 | 54 | 0 | 0.0 | 0.0 | 0.00 | 0.09 | 0.09 | 70 | 1018.4 |
| 20260903101803 | 55 | 0 | 0.0 | 0.0 | 0.00 | 0.09 | 0.09 | 70 | 1018.2 |
| 20260903100903 | 55 | 0 | 0.0 | 0.0 | 0.00 | 0.09 | 0.09 | 69 | 1018.2 |
| 20260903100008 | 55 | 0 | 0.0 | 0.0 | 0.00 | 0.09 | 0.09 | 69 | 1017.9 |
| 20260903095408 | 55 | 0 | 0.0 | 0.0 | 0.00 | 0.09 | 0.09 | 69 | 1017.9 |
| 20260903094713 | 55 | 0 | 0.0 | 0.0 | 0.00 | 0.09 | 0.09 | 69 | 1017.8 |
| 20260903093608 | 56 | 0 | 0.0 | 0.0 | 0.00 | 0.09 | 0.09 | 69 | 1017.7 |
| 20260903092708 | 56 | 0 | 0.0 | 0.0 | 0.00 | 0.09 | 0.09 | 68 | 1017.6 |
| 20260903091813 | 56 | 0 | 0.0 | 0.0 | 0.00 | 0.09 | 0.09 | 68 | 1017.5 |
| 20260903091119 | 57 | 0 | 0.0 | 0.0 | 0.00 | 0.09 | 0.09 | 68 | 1017.4 |
| 20260903090008 | 57 | 0 | 0.0 | 0.0 | 0.00 | 0.09 | 0.09 | 67 | 1017.1 |
| 20260903085613 | 57 | 0 | 0.0 | 0.0 | 0.00 | 0.09 | 0.09 | 67 | 1017.1 |
| 20260903084508 | 58 | 0 | 0.0 | 0.0 | 0.00 | 0.09 | 0.09 | 66 | 1016.8 |
| 20260903083608 | 58 | 0 | 0.0 | 0.0 | 0.00 | 0.09 | 0.09 | 65 | 1016.7 |
| 20260903082708 | 59 | 0 | 0.0 | 0.0 | 0.00 | 0.09 | 0.09 | 64 | 1016.6 |
| 20260903081809 | 59 | 0 | 0.0 | 0.0 | 0.00 | 0.09 | 0.09 | 64 | 1016.4 |
| 20260903080908 | 60 | 0 | 0.0 | 0.0 | 0.00 | 0.09 | 0.09 | 63 | 1016.2 |
| 20260903080008 | 60 | 0 | 0.0 | 0.0 | 0.00 | 0.09 | 0.09 | 62 | 1016.1 |
| 20260903075403 | 61 | 0 | 0.0 | 0.0 | 0.00 | 0.09 | 0.09 | 61 | 1016.0 |
| 20260903074503 | 61 | 0 | 0.0 | 0.0 | 0.00 | 0.09 | 0.09 | 60 | 1015.7 |
| 20260903073608 | 62 | 0 | 0.0 | 0.0 | 0.00 | 0.09 | 0.09 | 59 | 1015.6 |
| 20260903072708 | 63 | 0 | 0.0 | 0.0 | 0.00 | 0.09 | 0.09 | 58 | 1015.4 |
| 20260903072014 | 63 | 0 | 0.0 | 0.0 | 0.00 | 0.09 | 0.09 | 57 | 1015.4 |
| 20260903070905 | 64 | 0 | 0.0 | 0.0 | 0.00 | 0.09 | 0.09 | 54 | 1015.1 |
| 20260903070004 | 65 | 0 | 0.0 | 0.0 | 0.00 | 0.09 | 0.09 | 49 | 1014.9 |
| 20260903065403 | 66 | 0 | 0.0 | 0.0 | 0.00 | 0.09 | 0.09 | 45 | 1014.7 |
| 20260903064718 | 66 | 0 | 0.0 | 0.0 | 0.00 | 0.09 | 0.09 | 45 | 1014.6 |
| 20260903063603 | 66 | 0 | 0.0 | 0.0 | 0.00 | 0.09 | 0.09 | 49 | 1014.5 |
| 20260903062703 | 66 | 0 | 0.0 | 0.0 | 0.00 | 0.09 | 0.09 | 50 | 1014.3 |
| 20260903061808 | 67 | 0 | 0.0 | 0.0 | 0.00 | 0.09 | 0.09 | 50 | 1014.2 |
| 20260903060908 | 67 | 0 | 0.0 | 0.0 | 0.00 | 0.09 | 0.09 | 49 | 1014.1 |
| 20260903060219 | 67 | 0 | 0.0 | 0.0 | 0.00 | 0.09 | 0.09 | 47 | 1014.0 |
| 20260903055404 | 66 | 0 | 0.0 | 0.0 | 0.00 | 0.09 | 0.09 | 51 | 1014.0 |
| 20260903054503 | 66 | 0 | 0.0 | 0.0 | 0.00 | 0.09 | 0.09 | 52 | 1013.9 |
| 20260903053608 | 66 | 0 | 0.0 | 0.0 | 0.00 | 0.09 | 0.09 | 53 | 1013.9 |
| 20260903052924 | 66 | 0 | 0.0 | 0.0 | 0.00 | 0.09 | 0.09 | 54 | 1013.9 |
| 20260903051804 | 66 | 0 | 0.0 | 0.0 | 0.00 | 0.09 | 0.09 | 53 | 1013.8 |
| 20260903050908 | 66 | 0 | 0.0 | 0.0 | 0.00 | 0.09 | 0.09 | 55 | 1013.7 |
| 20260903050013 | 66 | 0 | 0.0 | 0.0 | 0.00 | 0.09 | 0.09 | 55 | 1013.8 |
| 20260903045403 | 65 | 0 | 0.0 | 0.0 | 0.00 | 0.09 | 0.09 | 56 | 1013.8 |
| 20260903044508 | 64 | 0 | 0.0 | 0.0 | 0.00 | 0.09 | 0.09 | 57 | 1013.6 |
| 20260903043819 | 64 | 0 | 0.0 | 0.0 | 0.00 | 0.09 | 0.09 | 57 | 1013.6 |
| 20260903042703 | 64 | 0 | 0.0 | 0.0 | 0.00 | 0.09 | 0.09 | 60 | 1013.6 |
| 20260903041803 | 64 | 0 | 0.0 | 0.0 | 0.00 | 0.09 | 0.09 | 62 | 1013.6 |
| 20260903041125 | 64 | 0 | 0.0 | 0.0 | 0.00 | 0.09 | 0.09 | 64 | 1013.5 |
| 20260903040009 | 64 | 0 | 0.0 | 0.0 | 0.00 | 0.09 | 0.09 | 63 | 1013.3 |
| 20260903035403 | 63 | 0 | 0.0 | 0.0 | 0.00 | 0.09 | 0.09 | 69 | 1013.3 |
| 20260903034504 | 62 | 0 | 0.0 | 0.0 | 0.00 | 0.09 | 0.09 | 78 | 1013.2 |
| 20260903033605 | 60 | 0 | 0.0 | 0.0 | 0.00 | 0.09 | 0.09 | 82 | 1013.2 |
| 20260903032708 | 59 | 0 | 0.0 | 0.0 | 0.04 | 0.09 | 0.09 | 83 | 1013.4 |
| 20260903031803 | 59 | 0 | 0.0 | 0.0 | 0.09 | 0.09 | 0.09 | 84 | 1013.4 |
| 20260903031114 | 59 | 0 | 0.0 | 0.0 | 0.09 | 0.09 | 0.09 | 85 | 1013.3 |
| 20260903030008 | 59 | 0 | 0.0 | 0.0 | 0.09 | 0.09 | 0.09 | 85 | 1013.5 |
| 20260903025408 | 58 | 0 | 0.0 | 0.0 | 0.09 | 0.09 | 0.09 | 84 | 1013.4 |
| 20260903024503 | 58 | 0 | 0.0 | 0.0 | 0.09 | 0.09 | 0.09 | 82 | 1013.4 |
| 20260903023605 | 59 | 0 | 0.0 | 0.0 | 0.09 | 0.09 | 0.09 | 80 | 1013.4 |
| 20260903022708 | 60 | 0 | 0.0 | 0.0 | 0.06 | 0.06 | 0.06 | 78 | 1013.4 |
| 20260903021805 | 61 | 0 | 0.0 | 0.0 | 0.00 | 0.00 | 0.00 | 76 | 1013.1 |
| 20260903020903 | 61 | 0 | 0.0 | 0.0 | 0.00 | 0.00 | 0.00 | 73 | 1012.8 |
| 20260903020004 | 61 | 0 | 0.0 | 0.0 | 0.00 | 0.00 | 0.00 | 71 | 1012.5 |
| 20260903015408 | 62 | 0 | 0.0 | 0.0 | 0.00 | 0.00 | 0.00 | 72 | 1012.6 |
| 20260903014508 | 62 | 0 | 0.0 | 0.0 | 0.00 | 0.00 | 0.00 | 73 | 1012.6 |
| 20260903013605 | 61 | 0 | 0.0 | 0.0 | 0.00 | 0.00 | 0.00 | 75 | 1012.9 |
| 20260903012708 | 60 | 0 | 0.0 | 0.0 | 0.00 | 0.00 | 0.00 | 77 | 1013.0 |
| 20260903011808 | 59 | 0 | 0.0 | 0.0 | 0.00 | 0.00 | 0.00 | 78 | 1013.0 |
| 20260903010908 | 59 | 0 | 0.0 | 0.0 | 0.00 | 0.00 | 0.00 | 77 | 1012.9 |
| 20260903010213 | 59 | 0 | 0.0 | 0.0 | 0.00 | 0.00 | 0.00 | 78 | 1012.7 |
| 20260903005403 | 58 | 0 | 0.0 | 0.0 | 0.00 | 0.00 | 0.00 | 80 | 1012.7 |
| 20260903004504 | 58 | 0 | 0.0 | 0.0 | 0.00 | 0.00 | 0.00 | 82 | 1012.7 |
| 20260903003608 | 58 | 0 | 0.0 | 0.0 | 0.00 | 0.00 | 0.00 | 81 | 1012.7 |
| 20260903002914 | 58 | 0 | 0.0 | 0.0 | 0.00 | 0.00 | 0.00 | 81 | 1012.7 |
| 20260903001803 | 57 | 0 | 0.0 | 0.0 | 0.00 | 0.00 | 0.00 | 76 | 1012.6 |
| 20260903000903 | 57 | 0 | 0.0 | 0.0 | 0.00 | 0.00 | 0.00 | 72 | 1012.3 |
| 20260903000003 | 57 | 0 | 0.0 | 0.0 | 0.00 | 0.00 | 0.00 | 71 | 1012.2 |
| 20260902235408 | 57 | 0 | 0.0 | 0.0 | 0.00 | 0.00 | 0.00 | 71 | 1011.9 |
| 20260902234713 | 57 | 0 | 0.0 | 0.0 | 0.00 | 0.00 | 0.00 | 71 | 1012.0 |
| 20260902233608 | 57 | 0 | 0.0 | 0.0 | 0.00 | 0.00 | 0.00 | 70 | 1012.1 |
| 20260902232703 | 57 | 0 | 0.0 | 0.0 | 0.00 | 0.00 | 0.00 | 70 | 1012.1 |
| 20260902232013 | 57 | 0 | 0.0 | 0.0 | 0.00 | 0.00 | 0.00 | 71 | 1012.0 |
| 20260902230908 | 56 | 0 | 0.0 | 0.0 | 0.00 | 0.00 | 0.00 | 71 | 1011.9 |
| 20260902230012 | 56 | 0 | 0.0 | 0.0 | 0.00 | 0.00 | 0.00 | 71 | 1011.9 |
| 20260902225403 | 56 | 0 | 0.0 | 0.0 | 0.00 | 0.00 | 0.00 | 72 | 1011.8 |
| 20260902224508 | 55 | 0 | 0.0 | 0.0 | 0.00 | 0.00 | 0.00 | 72 | 1011.8 |
| 20260902223605 | 55 | 0 | 0.0 | 0.0 | 0.00 | 0.00 | 0.00 | 72 | 1011.9 |
| 20260902222708 | 55 | 0 | 0.0 | 0.0 | 0.00 | 0.00 | 0.00 | 72 | 1011.8 |
| 20260902221803 | 54 | 0 | 0.0 | 0.0 | 0.00 | 0.00 | 0.00 | 73 | 1011.9 |
| 20260902220905 | 54 | 0 | 0.0 | 0.0 | 0.00 | 0.00 | 0.00 | 74 | 1011.8 |
| 20260902220004 | 53 | 0 | 0.0 | 0.0 | 0.00 | 0.00 | 0.00 | 75 | 1011.7 |
| 20260902215408 | 53 | 0 | 0.0 | 0.0 | 0.00 | 0.00 | 0.00 | 75 | 1011.8 |
| 20260902214504 | 52 | 0 | 0.0 | 0.0 | 0.00 | 0.00 | 0.00 | 76 | 1011.6 |
| 20260902213605 | 52 | 0 | 0.0 | 0.0 | 0.00 | 0.00 | 0.00 | 76 | 1011.4 |
| 20260902212708 | 51 | 0 | 0.0 | 0.0 | 0.00 | 0.00 | 0.00 | 76 | 1011.1 |
| 20260902211805 | 51 | 0 | 0.0 | 0.0 | 0.00 | 0.00 | 0.00 | 76 | 1010.8 |
| 20260902210905 | 51 | 0 | 0.0 | 0.0 | 0.00 | 0.00 | 0.00 | 77 | 1010.5 |
| 20260902210004 | 50 | 0 | 0.0 | 0.0 | 0.00 | 0.00 | 0.00 | 78 | 1010.2 |
| 20260902205403 | 50 | 0 | 0.0 | 0.0 | 0.00 | 0.00 | 0.00 | 78 | 1010.1 |
| 20260902204505 | 49 | 0 | 0.0 | 0.0 | 0.00 | 0.00 | 0.00 | 78 | 1010.1 |
| 20260902203605 | 49 | 0 | 0.0 | 0.0 | 0.00 | 0.00 | 0.00 | 78 | 1010.2 |
| 20260902202913 | 49 | 0 | 0.0 | 0.0 | 0.00 | 0.00 | 0.00 | 77 | 1010.2 |
| 20260902201805 | 49 | 0 | 0.0 | 0.0 | 0.00 | 0.00 | 0.00 | 77 | 1010.3 |
| 20260902200903 | 49 | 0 | 0.0 | 0.0 | 0.00 | 0.00 | 0.00 | 77 | 1010.3 |
| 20260902200008 | 49 | 0 | 0.0 | 0.0 | 0.00 | 0.00 | 0.00 | 76 | 1010.2 |
| 20260902195404 | 49 | 0 | 0.0 | 0.0 | 0.00 | 0.00 | 0.00 | 76 | 1010.2 |
| 20260902194505 | 49 | 0 | 0.0 | 0.0 | 0.00 | 0.00 | 0.00 | 76 | 1010.3 |
| 20260902193603 | 49 | 0 | 0.0 | 0.0 | 0.00 | 0.00 | 0.00 | 76 | 1010.3 |
| 20260902192703 | 49 | 0 | 0.0 | 0.0 | 0.00 | 0.00 | 0.00 | 76 | 1010.1 |
| 20260902192014 | 49 | 0 | 0.0 | 0.0 | 0.00 | 0.00 | 0.00 | 76 | 1010.0 |
| 20260902190905 | 49 | 0 | 0.0 | 0.0 | 0.00 | 0.00 | 0.00 | 76 | 1009.9 |
| 20260902190214 | 49 | 0 | 0.0 | 0.0 | 0.00 | 0.00 | 0.00 | 76 | 1009.9 |
| 20260902185614 | 49 | 0 | 0.0 | 0.0 | 0.00 | 0.00 | 0.00 | 76 | 1009.7 |
| 20260902184505 | 49 | 0 | 0.0 | 0.0 | 0.00 | 0.00 | 0.00 | 75 | 1009.7 |
| 20260902183605 | 50 | 0 | 0.0 | 0.0 | 0.00 | 0.00 | 0.00 | 75 | 1009.7 |
| 20260902182705 | 50 | 0 | 0.0 | 0.0 | 0.00 | 0.00 | 0.00 | 75 | 1009.6 |
| 20260902181803 | 50 | 0 | 0.0 | 0.0 | 0.00 | 0.00 | 0.00 | 76 | 1009.7 |
| 20260902181113 | 50 | 0 | 0.0 | 0.0 | 0.00 | 0.00 | 0.00 | 75 | 1009.6 |
| 20260902180006 | 50 | 0 | 0.0 | 0.0 | 0.00 | 0.00 | 0.00 | 76 | 1009.7 |
| 20260902175403 | 50 | 0 | 0.0 | 0.0 | 0.00 | 0.00 | 0.00 | 76 | 1009.7 |
| 20260902174505 | 50 | 0 | 0.0 | 0.0 | 0.00 | 0.00 | 0.00 | 76 | 1009.8 |
| 20260902173814 | 50 | 0 | 0.0 | 0.0 | 0.00 | 0.00 | 0.00 | 75 | 1009.7 |
| 20260902172916 | 51 | 0 | 0.0 | 0.0 | 0.00 | 0.00 | 0.00 | 75 | 1010.0 |
| 20260902171805 | 51 | 0 | 0.0 | 0.0 | 0.00 | 0.00 | 0.00 | 75 | 1009.9 |
| 20260902170903 | 51 | 0 | 0.0 | 0.0 | 0.00 | 0.00 | 0.00 | 75 | 1010.0 |
| 20260902170005 | 51 | 0 | 0.0 | 0.0 | 0.00 | 0.00 | 0.00 | 74 | 1010.0 |
| 20260902165403 | 51 | 0 | 0.0 | 0.0 | 0.00 | 0.00 | 0.00 | 74 | 1010.0 |
| 20260902164503 | 52 | 0 | 0.0 | 0.0 | 0.00 | 0.00 | 0.00 | 73 | 1010.0 |
| 20260902163603 | 52 | 0 | 0.0 | 0.0 | 0.00 | 0.00 | 0.00 | 73 | 1010.3 |
| 20260902162913 | 52 | 0 | 0.0 | 0.0 | 0.00 | 0.00 | 0.00 | 73 | 1010.4 |
| 20260902161803 | 52 | 0 | 0.0 | 0.0 | 0.00 | 0.00 | 0.00 | 73 | 1010.6 |
| 20260902161114 | 52 | 0 | 0.0 | 0.0 | 0.00 | 0.00 | 0.00 | 73 | 1010.6 |
| 20260902160010 | 52 | 0 | 0.0 | 0.0 | 0.00 | 0.00 | 0.00 | 73 | 1010.5 |
| 20260902155404 | 52 | 0 | 0.0 | 0.0 | 0.00 | 0.00 | 0.00 | 73 | 1010.7 |
| 20260902154503 | 52 | 0 | 0.0 | 0.0 | 0.00 | 0.00 | 0.00 | 74 | 1010.7 |
| 20260902153605 | 52 | 0 | 0.0 | 0.0 | 0.00 | 0.00 | 0.00 | 74 | 1010.9 |
| 20260902152703 | 52 | 0 | 0.0 | 0.0 | 0.00 | 0.00 | 0.00 | 75 | 1011.0 |
| 20260902152014 | 52 | 0 | 0.0 | 0.0 | 0.00 | 0.00 | 0.00 | 75 | 1011.0 |
| 20260902150903 | 52 | 0 | 0.0 | 0.0 | 0.00 | 0.00 | 0.00 | 74 | 1010.9 |
| 20260902150005 | 52 | 0 | 0.0 | 0.0 | 0.00 | 0.00 | 0.00 | 74 | 1010.9 |
| 20260902145403 | 52 | 0 | 0.0 | 0.0 | 0.00 | 0.00 | 0.00 | 74 | 1010.8 |
| 20260902144504 | 52 | 0 | 0.0 | 0.0 | 0.00 | 0.00 | 0.00 | 74 | 1010.7 |
| 20260902143603 | 52 | 0 | 0.0 | 0.0 | 0.00 | 0.00 | 0.00 | 74 | 1010.6 |
| 20260902142705 | 52 | 0 | 0.0 | 0.0 | 0.00 | 0.00 | 0.00 | 74 | 1010.8 |
| 20260902141805 | 52 | 0 | 0.0 | 0.0 | 0.00 | 0.00 | 0.00 | 73 | 1010.8 |
| 20260902140903 | 52 | 0 | 0.0 | 0.0 | 0.00 | 0.00 | 0.00 | 73 | 1010.9 |
| 20260902140215 | 52 | 0 | 0.0 | 0.0 | 0.00 | 0.00 | 0.00 | 72 | 1010.9 |
| 20260902135614 | 52 | 0 | 0.0 | 0.0 | 0.00 | 0.00 | 0.00 | 72 | 1011.0 |
| 20260902134505 | 52 | 0 | 0.0 | 0.0 | 0.00 | 0.00 | 0.00 | 72 | 1011.0 |
| 20260902133605 | 52 | 0 | 0.0 | 0.0 | 0.00 | 0.00 | 0.00 | 71 | 1011.1 |
| 20260902132703 | 52 | 0 | 0.0 | 0.0 | 0.00 | 0.00 | 0.00 | 71 | 1011.1 |
| 20260902131808 | 53 | 0 | 0.0 | 0.0 | 0.00 | 0.00 | 0.00 | 71 | 1011.4 |
| 20260902130908 | 53 | 0 | 0.0 | 0.0 | 0.00 | 0.00 | 0.00 | 70 | 1011.5 |
| 20260902130010 | 53 | 0 | 0.0 | 0.0 | 0.00 | 0.00 | 0.00 | 70 | 1011.6 |
| 20260902125405 | 53 | 0 | 0.0 | 0.0 | 0.00 | 0.00 | 0.00 | 69 | 1011.7 |
| 20260902124504 | 54 | 0 | 0.0 | 0.0 | 0.00 | 0.00 | 0.00 | 68 | 1011.7 |
| 20260902123605 | 54 | 0 | 0.0 | 0.0 | 0.00 | 0.00 | 0.00 | 68 | 1011.8 |
| 20260902122703 | 54 | 0 | 0.0 | 0.0 | 0.00 | 0.00 | 0.00 | 68 | 1011.9 |
| 20260902122019 | 54 | 0 | 0.0 | 0.0 | 0.00 | 0.00 | 0.00 | 68 | 1012.0 |
| 20260902120908 | 55 | 0 | 0.0 | 0.0 | 0.00 | 0.00 | 0.00 | 67 | 1012.2 |
| 20260902120004 | 55 | 0 | 0.0 | 0.0 | 0.00 | 0.00 | 0.00 | 67 | 1012.3 |
| 20260902115403 | 55 | 0 | 0.0 | 0.0 | 0.00 | 0.00 | 0.00 | 66 | 1012.3 |
| 20260902114508 | 55 | 0 | 0.0 | 0.0 | 0.00 | 0.00 | 0.00 | 65 | 1012.3 |
| 20260902113608 | 55 | 0 | 0.0 | 0.0 | 0.00 | 0.00 | 0.00 | 64 | 1012.2 |
| 20260902112703 | 55 | 0 | 0.0 | 0.0 | 0.00 | 0.00 | 0.00 | 65 | 1012.2 |
| 20260902111803 | 56 | 0 | 0.0 | 0.0 | 0.00 | 0.00 | 0.00 | 65 | 1012.4 |
| 20260902111118 | 56 | 0 | 0.0 | 0.0 | 0.00 | 0.00 | 0.00 | 65 | 1012.3 |
| 20260902110008 | 56 | 0 | 0.0 | 0.0 | 0.00 | 0.00 | 0.00 | 65 | 1012.3 |
| 20260902105408 | 56 | 0 | 0.0 | 0.0 | 0.00 | 0.00 | 0.00 | 65 | 1012.4 |
| 20260902104508 | 57 | 0 | 0.0 | 0.0 | 0.00 | 0.00 | 0.00 | 64 | 1012.1 |
| 20260902103603 | 57 | 0 | 0.0 | 0.0 | 0.00 | 0.00 | 0.00 | 64 | 1012.0 |